Tuxtla Gutierrez, Mexico

10:25 PM CST on March 26, 2017 (GMT -0600)
Francisco Sarabia

Weather History for MMTG - December, 2012

Change the Weather History Date:

Friday, December 14, 2012

  Actual Average Record
Temperature  
Mean Temperature 77 °F -  
Max Temperature 88 °F 72 °F 91 °F (2013)
Min Temperature 66 °F 58 °F 48 °F (1997)
Cooling Degree Days 12    
Growing Degree Days 27 (Base 50)    
Moisture  
Dew Point 64 °F    
Average Humidity 72    
Maximum Humidity 100    
Minimum Humidity 38    
Precipitation  
Precipitation 0.00 in - - ()
Sea Level Pressure  
Sea Level Pressure 29.99 in    
Wind  
Wind Speed 3 mph ()    
Max Wind Speed 16 mph    
Max Gust Speed -    
Visibility 8.9 miles    
Events      
Averages and records for this station are not official NWS values.
T = Trace of Precipitation, MM = Missing Value Source: Averaged Metar Reports

Daily Weather History Graph

Daily Weather History Graph

Search for Another Location

Airport or City:

Trip Planner

Search our weather history database for the weather conditions in past years. The results will help you decide how hot, cold, wet, or windy it might be!

Date:

Astronomy

Dec. 14, 2012 Rise Set
Actual Time 6:33 AM CST 5:41 PM CST
Civil Twilight 6:09 AM CST 6:05 PM CST
Nautical Twilight 5:42 AM CST 6:32 PM CST
Astronomical Twilight 5:16 AM CST 6:58 PM CST
Moon 7:45 AM CST (12/14) 7:25 PM CST (12/14)
Length of Visible Light 11h 55m
Length of Day
11h 08m
Waxing Crescent, 3% of the Moon is Illuminated
Dec 14
Waxing Crescent
Dec 19
First Quarter
Dec 28
Full
Jan 4
Last Quarter
Jan 11
New

Hourly Weather History & Observations

Time (CST) Temp. Heat Index Dew Point Humidity Pressure Visibility Wind Dir Wind Speed Gust Speed Precip Events Conditions
2:45 AM 69 °F - 66 °F 86% 30.01 in 9 mi NW 2.2 mph - -  
5:30 AM 68 °F - 67 °F 95% 30.00 in 9 mi SSW 2.2 mph - -  
5:45 AM 62.6 °F - 62.6 °F 100% 30.00 in 5.0 mi SSW 4.6 mph - N/A   Scattered Clouds
6:43 AM 60.8 °F - 59.0 °F 94% 30.10 in 4.0 mi NW 3.5 mph - N/A   Scattered Clouds
7:47 AM 66.2 °F - 62.6 °F 88% 30.12 in 7.0 mi ENE 2.3 mph - N/A   Partly Cloudy
8:40 AM 71 °F - 65 °F 77% 30.07 in 9 mi SSW 2.2 mph - -   Scattered Clouds
8:42 AM 71.6 °F - 64.4 °F 78% 30.06 in 7.0 mi Calm Calm - N/A   Partly Cloudy
9:46 AM 77.0 °F - 64.4 °F 65% 30.13 in 7.0 mi Calm Calm - N/A   Partly Cloudy
10:45 AM 80.6 °F 82.3 °F 64.4 °F 58% 30.10 in 10.0 mi Calm Calm - N/A   Partly Cloudy
11:40 AM 82 °F - 66 °F 50% 30.00 in 9 mi NW 2.2 mph - -   Scattered Clouds
12:40 PM 86.0 °F 86.1 °F 60.8 °F 43% 30.02 in 10.0 mi North 3.5 mph - N/A   Partly Cloudy
1:51 PM 87.8 °F 87.1 °F 59.0 °F 38% 29.96 in 10.0 mi NNW 4.6 mph - N/A   Scattered Clouds
2:43 PM 87.8 °F 87.1 °F 59.0 °F 38% 29.84 in 10.0 mi SE 4.6 mph - N/A   Scattered Clouds
3:53 PM 84.2 °F 85.6 °F 64.4 °F 51% 29.93 in 10.0 mi WNW 9.2 mph - N/A   Scattered Clouds
4:43 PM 82.4 °F 84.6 °F 66.2 °F 58% 29.94 in 10.0 mi NW 16.1 mph - N/A   Clear
5:35 PM 76 °F - 69 °F 73% 29.87 in 9 mi SSE 2.2 mph - -   Scattered Clouds
5:43 PM 77.0 °F - 66.2 °F 69% 29.88 in 10.0 mi NW 9.2 mph - N/A   Clear
6:45 PM 77.0 °F - 64.4 °F 65% 29.98 in 10.0 mi NW 6.9 mph - N/A   Clear
7:54 PM 73.4 °F - 64.4 °F 73% 30.00 in 10.0 mi NW 3.5 mph - N/A   Clear
8:43 PM 69.8 °F - 64.4 °F 83% 29.94 in 10.0 mi Calm Calm - N/A   Clear
8:45 PM 74 °F - 68 °F 78% 29.92 in 9 mi NW 2.2 mph - -   Scattered Clouds
9:48 PM 66.2 °F - 62.6 °F 88% 30.03 in 10.0 mi SW 3.5 mph - N/A   Clear
10:44 PM 68.0 °F - 64.4 °F 88% 30.03 in 10.0 mi South 3.5 mph - N/A   Clear
11:45 PM 72 °F - 68 °F 82% 29.95 in 9 mi NW 2.2 mph - -  
11:51 PM 66.2 °F - 64.4 °F 94% 29.94 in 10.0 mi SW 4.6 mph - N/A   Clear